CAPE
0 0 0 0 0 0 0 0 2 3 4 3 5 5 0 1 0 0 0 0 0 0 0 0 0 0 0 0 0 0 0 0 0 0 0 0 0 0 0 0 0 8 79 56 49 48 56 52 80 241 283 275 227 244
0 0 0 0 0 0 0 0 1 3 3 2 5 10 3 2 1 0 0 0 0 0 0 0 0 0 0 0 0 0 0 0 0 0 0 0 0 0 0 0 0 0 0 38 87 94 168 449 218 396 277 124 86 61
0 0 0 0 0 0 0 0 0 0 1 3 6 8 1 4 0 0 0 0 0 0 0 0 0 0 0 0 0 0 0 0 0 0 0 0 0 0 0 0 0 0 85 104 28 5 68 69 329 399 134 100 84 98
1 1 1 1 0 0 0 0 0 0 0 3 8 8 2 0 0 0 0 0 0 0 0 0 0 0 0 0 0 0 0 0 0 0 0 0 0 0 0 0 0 0 145 164 201 229 347 467 527 209 91 40 0 183
2 1 1 1 1 1 1 0 0 0 0 1 7 8 10 0 0 0 2 0 0 0 0 0 0 0 0 0 0 0 0 0 0 0 0 0 0 0 0 0 0 0 4 18 7 6 43 229 203 5 8 17 0 119
4 2 1 1 1 2 1 1 0 0 0 0 5 6 7 0 0 0 5 0 0 0 0 0 0 0 0 0 0 0 0 0 0 0 0 0 0 0 0 0 0 0 0 2 0 0 0 0 0 0 0 0 0 0
0 3 1 1 1 2 2 1 1 0 0 0 2 0 2 1 0 0 0 0 0 0 1 0 0 0 0 0 0 0 0 0 0 1 0 0 0 1 1 3 16 24 11 7 2 7 10 0 1 0 0 16 4 24
6 3 4 5 1 1 1 1 0 0 0 0 0 0 0 0 0 4 2 0 0 3 1 0 0 0 0 3 12 0 4 5 7 1 3 7 18 12 7 14 10 26 123 104 43 11 10 8 0 0 115 337 104 111
9 7 6 6 4 1 0 0 0 0 0 0 0 0 0 0 6 1 0 0 0 3 1 0 0 21 0 0 0 7 3 14 15 14 22 63 54 97 24 2 2 8 113 466 396 522 284 427 569 699 743 668 215 224
11 8 5 6 6 3 0 0 0 0 0 0 0 5 4 2 0 0 13 13 10 15 4 0 0 0 0 12 24 16 36 27 20 11 36 63 136 6 0 0 9 10 85 738 525 517 674 729 796 1025 1039 512 162 693
12 12 8 8 5 2 1 0 0 0 0 0 0 3 1 0 7 6 2 7 4 3 1 0 0 8 0 7 24 32 43 38 38 73 181 68 58 24 0 1 0 18 252 582 569 687 892 990 955 1000 1145 1267 1334 1281
11 11 10 8 3 2 1 0 0 0 0 0 0 0 0 2 4 3 5 3 5 2 1 4 20 0 1 0 39 77 61 49 18 169 234 7 57 22 67 6 3 3 5 88 463 527 608 559 746 884 1003 942 880 895
7 9 8 7 2 2 1 0 0 0 0 1 0 0 1 4 9 4 3 4 4 20 26 37 76 46 5 36 56 67 43 35 68 155 147 9 14 96 106 100 78 15 0 1 5 334 330 338 401 606 668 477 338 337
8 8 9 6 3 2 0 0 0 0 0 0 0 3 7 3 0 1 6 25 45 56 114 128 110 79 81 81 45 28 43 62 79 90 124 75 74 59 62 83 74 60 9 0 3 1 138 221 333 411 438 346 257 303
5 4 0 1 0 0 0 0 0 0 0 0 0 2 0 0 0 1 1 14 70 75 110 151 99 83 105 59 55 58 74 73 95 118 84 36 52 55 37 23 13 19 42 10 0 6 1 98 204 281 252 227 326 384
3 0 3 0 0 0 0 0 0 0 0 0 0 0 0 0 0 7 41 88 85 123 149 105 120 92 85 88 98 75 90 92 118 65 49 98 38 47 100 67 80 45 52 49 8 9 7 34 84 114 176 226 253 327
0 15 0 0 0 0 0 0 2 3 0 1 0 0 0 0 1 15 53 36 141 212 184 75 71 35 79 71 65 131 124 54 53 68 112 113 45 65 42 88 90 59 47 47 43 20 21 31 32 51 109 245 308 296
14 21 0 0 0 0 0 0 6 8 2 0 4 5 0 1 0 0 38 87 208 212 84 117 84 102 54 51 70 38 43 38 54 88 53 65 92 89 76 95 46 48 44 14 10 9 28 28 20 21 25 94 49 355
6 6 4 2 3 7 6 3 4 42 10 27 17 0 0 0 0 0 0 33 126 113 181 121 116 106 99 60 28 13 20 50 117 87 114 125 133 161 82 55 14 8 30 26 14 10 5 4 7 7 5 47 57 460
0 0 1 2 8 9 4 6 5 13 12 64 22 48 22 43 71 151 150 100 88 70 150 127 143 132 47 12 0 4 23 50 98 120 107 89 63 54 29 27 1 16 26 18 16 1 4 3 17 69 48 62 273 373
3 7 3 10 12 9 11 9 13 18 40 67 70 96 157 156 194 255 240 75 158 206 242 221 212 35 0 0 0 11 39 108 118 136 153 77 34 30 64 14 16 9 23 22 17 6 0 3 15 81 34 248 378 512
10 1 13 7 14 11 7 3 2 1 0 0 8 27 39 108 244 258 249 190 234 294 251 252 184 50 24 45 8 50 79 145 162 112 51 42 49 88 44 11 5 5 17 25 14 16 25 35 13 29 193 320 81 481
0 8 21 9 27 7 0 0 2 1 0 0 7 21 11 37 125 157 307 279 259 282 255 167 190 52 0 25 124 112 113 151 112 52 108 43 67 118 4 2 3 217 226 68 6 39 72 1 52 122 163 223 4 127
0 21 54 29 29 36 51 30 15 30 17 9 5 10 111 216 140 198 74 178 303 220 114 110 88 69 76 74 39 26 55 68 63 235 22 10 91 87 0 4 3 93 193 291 77 268 189 195 10 15 10 31 29 1
4 1 12 6 61 31 18 41 16 25 12 19 38 0 76 161 212 61 74 102 455 254 78 13 1 0 0 0 21 43 57 61 112 142 14 0 45 93 6 0 26 8 5 245 153 320 96 64 312 8 9 6 2 15
9 17 17 26 32 7 33 36 12 10 17 28 85 85 264 243 18 32 100 234 356 307 75 0 0 0 0 10 26 36 71 82 168 39 0 0 0 21 69 30 21 93 20 40 74 72 147 139 121 21 7 3 0 1
11 20 46 26 12 15 2 4 10 56 61 49 64 129 187 47 52 115 212 314 185 209 126 0 0 0 0 2 29 62 93 239 319 29 0 0 0 0 0 4 21 70 32 0 0 33 4 12 16 31 25 26 29 14
25 22 17 46 15 8 11 25 24 48 30 223 106 84 74 61 93 182 280 301 246 218 83 23 13 0 0 12 61 150 255 232 75 0 0 0 0 0 0 0 0 0 0 22 14 32 35 14 0 0 4 4 3 4
17 36 15 19 32 31 24 22 22 60 119 86 96 80 111 234 309 372 612 292 197 201 75 34 35 11 0 18 76 144 314 150 23 0 0 0 0 0 0 0 0 1 16 0 0 4 28 0 0 0 0 31 9 2
15 18 46 49 28 8 13 26 23 44 86 105 240 271 281 295 350 436 489 377 260 237 181 63 19 46 50 128 259 409 366 172 70 3 0 0 0 0 0 0 0 0 7 22 21 4 0 3 0 0 0 11 43 41
25 14 13 12 9 1 0 2 5 6 12 64 139 231 242 326 319 527 565 548 395 293 251 145 135 149 263 397 509 548 241 158 27 0 0 0 0 0 0 0 0 0 0 0 4 8 2 0 0 0 0 0 0 8
10 9 8 2 0 2 9 11 9 0 4 25 112 322 377 412 378 463 633 605 573 443 61 144 387 468 500 520 451 278 2 62 134 0 0 0 0 0 0 0 0 0 0 0 0 0 0 0 0 0 0 0 0 0
1 1 1 0 1 24 127 184 129 130 130 190 232 234 414 240 228 404 318 456 609 530 342 335 442 561 609 419 320 183 32 187 35 13 0 0 0 0 0 0 0 0 0 0 0 0 0 0 0 0 0 0 0 0
CIN
-0 -0 -0 -0 -0 -0 -0 -0 -0 -0 -0 -0 -0 -0 -0 -0 -0 -0 -0 -0 -0 -0 -0 -0 -0 -0 -0 -0 -0 -0 -0 -0 -0 -0 -0 -0 -0 -0 -0 -0 -0 -0 -0 -0 -0 -0 -0 -0 -4 -0 -1 -18 -23 -34
-0 -0 -0 -0 -0 -0 -0 -0 -0 -1 -0 -0 -0 -0 -2 -0 -0 -0 -0 -0 -0 -0 -0 -0 -0 -0 -0 -0 -0 -0 -0 -0 -0 -0 -0 -0 -0 -0 -0 -0 -0 -0 -0 -0 -0 -0 -2 -4 -0 -4 -11 -17 -24 -29
-0 -0 -0 -0 -0 -0 -0 -0 -0 -1 -0 -1 -1 -0 -3 -0 -0 -0 -0 -0 -0 -0 -0 -0 -0 -0 -0 -0 -0 -0 -0 -0 -0 -0 -0 -0 -0 -0 -0 -0 -0 -0 -4 -2 -13 -3 -6 -0 -0 -12 -31 -25 -36 -33
-0 -0 -0 -0 -0 -0 -0 -0 -0 -0 -1 -2 -2 -1 -1 -0 -0 -4 -0 -0 -0 -0 -0 -0 -0 -0 -0 -0 -0 -0 -0 -0 -0 -0 -0 -0 -0 -0 -0 -0 -0 -0 -3 -0 -0 -0 -0 -1 -6 -27 -42 -45 -0 -22
-0 -0 -0 -0 -0 -0 -0 -0 -0 -0 -0 -5 -4 -2 -0 -0 -0 -0 -0 -0 -0 -0 -0 -0 -0 -0 -0 -0 -0 -0 -0 -0 -0 -0 -0 -0 -0 -0 -0 -0 -0 -0 -38 -40 -39 -17 -9 -9 -14 -18 -47 -44 -0 -24
-0 -0 -0 -0 -0 -0 -0 -0 -0 -0 -0 -0 -6 -4 -0 -2 -0 -0 -0 -0 -0 -0 -0 -0 -0 -0 -0 -0 -0 -0 -0 -0 -0 -0 -0 -0 -0 -0 -0 -0 -0 -0 -0 -0 -2 -0 -0 -0 -0 -0 -0 -0 -0 -0
-0 -0 -0 -0 -0 -0 -0 -0 -0 -0 -0 -0 -8 -0 -0 -0 -0 -0 -0 -0 -0 -0 -0 -0 -0 -0 -0 -0 -0 -0 -0 -0 -0 -0 -0 -0 -0 -0 -0 -0 -20 -14 -0 -0 -0 -0 -0 -0 -0 -0 -0 -69 -15 -56
-1 -0 -0 -0 -0 -0 -0 -0 -0 -0 -0 -0 -0 -0 -0 -0 -0 -0 -0 -0 -0 -0 -0 -0 -0 -0 -0 -0 -0 -0 -0 -0 -0 -0 -0 -0 -61 -0 -0 -3 -0 -9 -5 -1 -2 -13 -0 -0 -0 -0 -23 -11 -67 -38
-2 -0 -1 -0 -0 -0 -0 -0 -0 -0 -0 -0 -0 -0 -0 -0 -0 -0 -0 -0 -0 -0 -0 -0 -0 -0 -0 -0 -0 -0 -0 -0 -0 -0 -0 -43 -60 -23 -0 -0 -0 -4 -6 -0 -0 -0 -0 -0 -0 -0 -0 -13 -43 -14
-2 -2 -1 -1 -1 -0 -0 -0 -0 -0 -0 -0 -0 -0 -0 -0 -0 -0 -0 -0 -0 -0 -0 -0 -0 -0 -0 -0 -0 -0 -0 -0 -0 -1 -54 -41 -8 -24 -1 -0 -0 -1 -6 -0 -15 -3 -0 -0 -0 -0 -0 -17 -35 -5
-2 -3 -3 -2 -1 -0 -0 -0 -0 -0 -0 -0 -0 -0 -0 -0 -0 -0 -0 -0 -0 -0 -0 -0 -0 -0 -0 -0 -0 -0 -0 -0 -0 -6 -0 -67 -59 -0 -14 -0 -0 -0 -0 -0 -1 -0 -0 -0 -4 -1 -0 -2 -0 -5
-1 -0 -3 -3 -0 -0 -0 -0 -0 -0 -0 -0 -0 -0 -0 -0 -0 -0 -0 -0 -0 -1 -6 -4 -0 -0 -0 -0 -0 -0 -0 -1 -0 -0 -0 -1 -69 -0 -13 -6 -46 -16 -3 -4 -0 -0 -0 -9 -0 -3 -2 -7 -18 -34
-3 -1 -1 -3 -1 -0 -0 -0 -0 -0 -0 -0 -0 -0 -0 -0 -0 -0 -0 -0 -0 -4 -3 -8 -1 -1 -1 -0 -0 -0 -0 -0 -0 -0 -0 -42 -18 -63 -58 -0 -4 -49 -0 -35 -33 -0 -0 -5 -15 -1 -14 -40 -52 -48
-5 -4 -2 -3 -3 -0 -0 -0 -0 -0 -0 -0 -0 -0 -0 -0 -0 -0 -0 -0 -0 -3 -0 -0 -0 -0 -0 -0 -0 -0 -0 -0 -2 -0 -0 -12 -0 -0 -0 -0 -1 -1 -32 -1 -51 -12 -0 -0 -0 -1 -7 -30 -53 -36
-10 -9 -0 -0 -0 -0 -0 -0 -0 -0 -0 -0 -0 -0 -0 -0 -0 -0 -0 -5 -3 -8 -3 -1 -5 -2 -0 -0 -0 -0 -0 -1 -0 -0 -0 -0 -1 -0 -2 -4 -3 -16 -0 -1 -2 -21 -25 -2 -1 -0 -0 -17 -29 -37
-0 -0 -0 -0 -0 -0 -0 -0 -0 -0 -0 -0 -0 -0 -0 -0 -0 -0 -1 -0 -0 -10 -16 -4 -0 -0 -0 -0 -0 -0 -0 -0 -0 -0 -0 -0 -0 -0 -0 -0 -0 -0 -0 -0 -16 -0 -24 -15 -6 -13 -6 -1 -9 -22
-0 -0 -0 -0 -0 -0 -0 -0 -0 -0 -0 -0 -0 -19 -0 -0 -0 -1 -0 -6 -14 -3 -0 -0 -0 -1 -2 -0 -0 -0 -0 -0 -0 -0 -0 -1 -8 -0 -0 -0 -0 -0 -0 -0 -0 -0 -18 -4 -21 -12 -8 -2 -5 -25
-0 -1 -0 -0 -0 -0 -0 -0 -0 -0 -0 -0 -25 -8 -0 -31 -0 -0 -8 -8 -3 -0 -42 -1 -6 -0 -0 -0 -0 -0 -0 -0 -0 -15 -27 -7 -0 -0 -0 -0 -0 -0 -0 -3 -0 -0 -0 -0 -10 -18 -24 -10 -40 -10
-0 -0 -0 -0 -0 -0 -0 -0 -0 -0 -3 -2 -0 -0 -0 -2 -0 -0 -0 -9 -8 -24 -0 -6 -0 -0 -0 -2 -0 -0 -0 -0 -0 -17 -0 -0 -0 -0 -10 -8 -13 -0 -2 -3 -0 -0 -0 -0 -0 -0 -0 -31 -29 -0
-0 -0 -0 -0 -0 -0 -7 -0 -0 -0 -1 -0 -0 -1 -4 -0 -0 -0 -2 -13 -30 -26 -1 -0 -0 -0 -0 -0 -0 -1 -0 -0 -0 -0 -0 -0 -0 -10 -25 -12 -0 -0 -3 -4 -0 -0 -0 -0 -2 -3 -7 -30 -1 -4
-0 -0 -0 -0 -0 -0 -0 -0 -0 -0 -0 -0 -0 -0 -0 -0 -0 -0 -0 -43 -7 -0 -2 -0 -0 -7 -0 -0 -0 -2 -0 -0 -0 -0 -0 -0 -0 -2 -0 -2 -1 -0 -3 -0 -0 -0 -0 -0 -0 -17 -30 -0 -0 -0
-0 -0 -0 -0 -8 -0 -0 -0 -1 -0 -0 -10 -8 -0 -0 -1 -0 -4 -6 -6 -0 -0 -0 -4 -11 -19 -23 -10 -2 -8 -5 -6 -0 -0 -12 -5 -0 -0 -1 -1 -0 -4 -1 -2 -0 -0 -76 -1 -0 -13 -0 -0 -35 -0
-0 -1 -1 -5 -4 -0 -0 -0 -0 -2 -0 -1 -0 -0 -0 -3 -0 -20 -4 -1 -0 -5 -19 -32 -36 -34 -0 -5 -13 -12 -13 -10 -1 -11 -0 -0 -0 -0 -1 -0 -0 -38 -29 -104 -9 -76 -21 -1 -3 -2 -1 -0 -30 -27
-0 -6 -0 -0 -0 -0 -0 -0 -1 -0 -3 -0 -0 -0 -0 -0 -23 -9 -0 -0 -0 -29 -44 -66 -54 -30 -16 -22 -6 -1 -2 -7 -4 -3 -6 -3 -0 -0 -0 -0 -0 -42 -16 -0 -22 -0 -1 -1 -12 -21 -32 -40 -39 -52
-0 -5 -2 -1 -0 -0 -0 -0 -3 -0 -0 -0 -0 -0 -1 -23 -2 -1 -0 -0 -6 -22 -33 -53 -32 -0 -0 -0 -0 -0 -13 -11 -0 -0 -5 -0 -0 -10 -19 -0 -0 -16 -25 -1 -1 -0 -1 -1 -0 -10 -19 -2 -0 -34
-0 -0 -4 -0 -0 -0 -0 -0 -0 -0 -0 -0 -0 -0 -4 -3 -0 -0 -1 -0 -5 -10 -30 -0 -0 -0 -0 -1 -1 -0 -0 -10 -6 -0 -0 -0 -0 -2 -9 -19 -20 -4 -25 -8 -4 -37 -10 -7 -9 -0 -0 -0 -0 -0
-0 -0 -0 -6 -0 -1 -2 -3 -18 -0 -0 -0 -0 -0 -2 -0 -0 -0 -0 -16 -18 -34 -43 -0 -0 -0 -0 -0 -4 -9 -12 -12 -8 -9 -0 -0 -0 -0 -0 -0 -13 -16 -5 -0 -0 -2 -10 -5 -5 -14 -27 -29 -27 -0
-0 -0 -0 -0 -0 -0 -0 -0 -2 -0 -0 -0 -1 -0 -0 -0 -0 -0 -2 -32 -44 -58 -49 -42 -39 -0 -0 -1 -5 -6 -1 -3 -3 -0 -0 -0 -0 -0 -0 -0 -0 -0 -0 -1 -11 -15 -7 -11 -0 -0 -0 -0 -0 -0
-0 -0 -0 -0 -0 -0 -0 -4 -3 -6 -23 -12 -0 -0 -0 -0 -1 -1 -12 -40 -49 -41 -27 -32 -30 -38 -3 -29 -21 -13 -3 -0 -0 -0 -0 -0 -0 -0 -0 -0 -0 -2 -25 -0 -0 -4 -8 -3 -0 -0 -0 -9 -23 -8
-0 -0 -0 -0 -0 -2 -2 -0 -0 -0 -1 -3 -10 -5 -3 -2 -5 -37 -45 -45 -25 -23 -13 -11 -12 -15 -8 -5 -1 -1 -0 -0 -0 -0 -0 -0 -0 -0 -0 -0 -0 -0 -1 -0 -7 -8 -0 -3 -0 -0 -0 -10 -0 -0
-0 -0 -0 -0 -0 -0 -0 -0 -0 -0 -11 -6 -3 -8 -1 -0 -6 -18 -36 -29 -30 -20 -8 -2 -3 -2 -0 -0 -0 -0 -0 -0 -15 -0 -0 -0 -0 -0 -0 -0 -0 -0 -0 -0 -0 -0 -0 -0 -0 -0 -0 -0 -5 -6
-0 -0 -0 -0 -0 -36 -22 -20 -6 -0 -22 -11 -0 -0 -2 -2 -4 -0 -35 -42 -31 -24 -24 -9 -0 -0 -0 -0 -0 -0 -0 -0 -7 -0 -0 -0 -0 -0 -0 -0 -0 -0 -0 -0 -0 -0 -0 -0 -0 -0 -0 -0 -0 -0
-0 -0 -0 -0 -6 -29 -14 -5 -14 -8 -5 -4 -3 -0 -1 -4 -0 -0 -93 -61 -20 -1 -0 -3 -0 -0 -1 -2 -0 -3 -1 -0 -27 -28 -0 -0 -0 -0 -0 -0 -0 -0 -0 -0 -0 -0 -0 -0 -0 -0 -0 -0 -0 -0
Wind_Speed
8 8 8 7 6 6 7 8 9 9 10 11 11 10 11 13 13 9 3 5 5 4 5 5 6 8 5 6 5 6 6 6 5 6 7 8 8 9 9 15 14 11 11 11 12 17 19 6 5 14 3 2 3 6
7 8 8 8 7 6 5 6 7 8 9 10 10 10 8 9 10 10 1 2 4 5 6 4 7 8 9 5 4 4 6 2 4 5 3 4 7 5 9 11 3 12 14 13 10 8 3 5 9 1 2 5 5 7
8 7 8 8 8 8 7 6 6 7 8 9 9 9 8 9 8 8 4 4 3 4 5 5 3 3 11 13 9 5 3 2 3 5 6 5 6 7 10 9 12 13 9 10 14 13 17 14 7 5 4 5 7 9
8 7 7 7 8 8 9 8 6 6 8 9 9 8 6 5 6 7 3 2 3 3 5 6 4 3 1 7 11 13 4 2 5 4 6 7 8 6 9 13 12 10 5 10 14 15 16 13 5 5 7 9 9 9
8 8 7 6 7 8 9 9 8 7 8 8 9 8 6 5 4 6 4 2 2 6 6 3 5 3 6 8 8 9 10 9 6 6 7 9 9 10 11 13 13 11 13 12 13 14 14 15 10 12 12 12 11 10
8 8 7 7 7 8 9 9 9 8 8 9 10 9 7 4 4 5 5 4 3 3 5 3 4 4 7 8 9 9 8 7 6 5 6 7 11 8 8 10 10 12 14 15 16 18 18 17 14 15 17 17 15 14
9 9 8 8 7 8 8 9 9 8 8 9 10 12 11 5 6 4 6 5 2 3 4 4 3 6 5 7 6 4 5 4 6 6 7 9 10 5 10 14 14 16 18 19 20 19 20 18 17 15 14 17 14 16
9 9 9 8 8 7 7 7 8 8 8 8 8 5 2 6 6 4 3 3 4 4 3 4 1 5 4 4 2 1 5 5 6 6 4 6 5 5 6 15 18 19 20 19 18 19 20 18 19 20 18 15 17 16
9 8 9 9 9 9 8 8 8 8 7 7 4 4 5 6 2 4 4 6 2 4 4 3 4 4 3 3 2 4 3 4 2 6 3 4 3 1 9 14 19 21 16 21 19 19 17 14 15 18 17 15 16 14
10 8 8 9 8 8 9 8 7 7 7 3 5 5 3 3 3 5 4 3 3 3 3 5 1 2 3 1 1 3 3 3 4 4 1 3 1 2 5 8 12 16 19 16 11 18 13 13 11 13 11 11 12 9
11 10 9 8 8 9 8 7 6 5 4 4 3 1 4 2 5 2 2 3 3 4 5 4 4 5 4 5 5 1 3 2 4 3 3 3 3 1 3 11 12 15 18 11 6 11 10 8 8 7 4 1 4 5
12 12 10 9 8 9 8 6 4 2 2 3 3 2 3 4 2 3 3 2 5 3 6 4 1 3 1 2 3 3 3 2 5 1 3 2 1 4 6 8 11 14 17 16 14 12 12 9 11 8 7 7 7 6
13 13 12 10 9 8 7 5 4 7 6 3 3 4 3 3 3 6 7 5 4 5 5 5 3 3 4 3 4 2 5 5 0 4 3 3 5 9 10 10 9 9 12 14 14 14 12 6 14 8 8 8 9 6
14 13 13 11 10 8 7 5 9 4 2 3 4 3 6 6 6 5 4 2 5 2 4 3 2 4 2 4 4 5 3 3 5 5 1 3 9 13 13 12 12 14 9 11 14 13 14 12 10 9 6 7 9 8
15 15 15 11 7 5 8 7 11 2 2 3 4 5 7 6 4 4 2 3 3 2 3 2 2 4 3 4 3 4 4 6 2 4 5 10 15 13 10 10 11 12 13 10 10 13 13 12 12 10 8 9 10 9
16 17 3 13 5 3 10 12 2 1 2 4 6 5 5 6 6 5 5 5 2 2 2 3 2 4 3 3 3 5 4 3 4 7 8 11 12 11 10 10 11 12 13 13 10 12 12 12 11 12 11 8 8 9
14 1 9 16 4 13 7 2 2 5 4 5 6 6 8 7 7 5 2 3 1 4 3 1 3 1 1 4 4 1 4 6 9 7 6 6 5 9 11 13 14 13 13 13 12 11 12 11 11 12 11 8 9 10
3 4 7 8 7 1 1 1 2 4 7 6 6 4 5 6 7 6 3 4 4 2 2 2 3 5 4 5 3 1 5 4 3 2 4 7 10 11 10 14 13 13 12 10 10 11 12 12 11 9 8 6 8 8
8 10 10 7 3 2 2 3 3 4 7 6 5 4 4 7 7 7 6 4 5 2 3 3 4 4 4 2 5 2 2 3 4 5 9 12 12 12 12 11 11 12 11 9 9 7 7 10 10 9 5 4 5 5
17 16 15 11 7 2 3 2 3 5 4 1 4 6 5 7 2 3 5 6 5 4 6 5 4 4 3 1 2 3 2 3 6 8 10 11 11 9 9 8 9 11 9 8 7 7 7 8 8 7 3 6 5 5
8 3 4 6 3 3 3 2 5 4 4 4 4 5 5 6 6 5 4 4 7 5 4 5 3 3 2 3 5 3 4 6 8 9 11 13 13 11 8 10 9 8 5 5 4 5 7 6 4 5 3 4 3 4
2 4 2 2 3 4 3 4 4 3 4 3 6 6 5 4 4 5 4 6 5 7 4 3 5 7 7 8 6 7 5 8 10 10 10 10 9 10 10 9 8 5 3 3 4 3 3 4 2 2 4 1 1 1
8 2 2 3 3 4 5 3 5 4 3 3 3 4 4 4 2 5 4 4 4 3 4 4 7 8 7 7 5 6 7 9 8 8 8 8 6 9 10 8 6 3 2 3 2 2 1 3 2 1 2 2 3 4
3 3 4 5 7 4 3 5 4 3 3 4 5 5 4 3 5 5 5 4 3 4 6 8 9 8 6 5 6 5 5 5 6 5 5 7 7 9 10 7 6 5 5 4 3 3 4 4 4 5 5 5 4 5
3 5 3 5 4 4 4 4 5 4 5 9 9 7 4 5 4 3 3 3 4 5 7 9 9 9 8 6 5 3 2 4 5 5 4 5 4 6 8 8 7 8 7 6 5 4 7 6 6 8 5 7 8 8
5 6 6 4 4 5 5 3 7 8 5 4 7 2 4 3 4 4 2 1 3 5 8 11 10 9 7 4 3 2 1 2 4 3 4 4 5 3 2 2 4 5 6 6 9 9 6 7 9 12 9 9 10 12
4 6 5 3 2 2 3 1 4 5 6 5 3 4 4 3 3 2 2 1 0 2 6 9 9 8 7 6 4 2 2 2 3 3 2 2 4 4 5 7 9 5 5 7 5 8 10 11 9 10 11 10 10 12
3 2 5 2 4 4 3 2 3 4 4 3 3 6 3 2 2 3 4 3 3 4 6 8 8 7 5 5 4 3 2 0 1 4 6 5 4 6 6 7 7 5 7 9 13 9 8 8 9 9 10 11 10 9
5 4 4 4 4 4 6 6 4 4 2 2 2 0 2 1 2 1 3 2 3 5 7 8 8 6 5 5 4 3 2 3 4 7 8 7 6 7 6 7 7 8 9 6 11 10 13 11 10 10 11 12 12 12
5 6 4 5 5 5 6 9 9 8 2 3 3 2 3 3 0 0 3 4 5 5 6 8 9 9 8 8 7 6 5 3 4 6 7 7 7 6 6 7 7 7 6 6 7 6 4 8 9 7 10 9 8 8
1 4 4 6 5 7 10 9 8 7 6 7 5 6 6 4 4 4 5 4 5 5 7 7 8 9 8 8 7 8 7 5 4 5 8 8 8 7 7 7 6 6 7 7 7 7 8 9 10 12 13 13 12 11
4 5 3 3 4 5 5 5 6 7 8 8 9 5 3 3 4 4 5 5 7 7 8 8 8 7 7 7 7 7 2 9 9 8 9 8 9 8 7 7 7 7 8 8 8 9 10 10 10 11 12 14 15 15
2 4 6 5 5 4 4 5 5 4 5 5 6 6 4 4 5 2 3 5 5 6 8 9 7 5 8 8 8 7 4 7 8 8 10 8 10 7 7 7 8 8 10 10 10 10 11 12 11 12 12 12 12 12
Wind_Direction
274 276 285 296 308 326 335 338 338 342 349 351 355 8 11 4 4 335 36 8 319 285 289 244 254 262 222 246 257 88 255 188 228 247 253 248 245 257 247 259 268 244 241 242 237 258 258 232 215 231 313 126 325 326
284 276 276 279 285 285 302 325 332 333 345 340 343 356 4 357 351 326 293 14 324 263 336 324 290 279 269 319 304 189 335 336 343 276 246 299 246 238 276 269 198 251 262 274 280 270 24 327 276 131 312 294 327 323
298 285 275 270 271 275 276 290 311 323 326 325 331 348 3 353 346 336 338 342 246 270 237 241 217 195 226 240 260 266 171 297 223 354 316 282 264 289 263 254 267 263 261 265 269 251 267 257 241 258 310 331 334 311
304 300 291 279 271 270 274 271 276 297 302 309 318 330 342 349 335 316 316 17 286 293 285 100 159 198 165 203 213 235 315 251 297 269 266 262 265 250 269 284 273 283 315 273 282 276 280 259 265 311 321 304 306 293
311 310 306 291 281 274 272 270 265 276 289 303 310 313 328 325 316 268 235 218 290 319 328 326 303 178 196 184 201 219 239 252 260 250 234 252 261 272 260 265 267 264 247 258 266 297 306 290 272 282 286 290 297 287
321 317 321 319 306 285 276 271 265 270 286 299 300 304 293 283 266 240 205 168 210 291 277 267 68 189 176 198 219 230 238 244 233 245 264 250 264 269 271 278 279 261 270 273 276 283 277 276 278 274 277 275 275 265
317 316 320 313 310 303 287 275 272 269 283 294 302 313 297 226 234 294 7 34 155 251 273 277 193 144 199 223 218 211 210 218 242 247 243 266 270 210 268 273 311 332 322 311 295 282 274 278 270 279 276 284 265 262
311 310 312 308 310 307 303 293 283 277 288 301 318 338 81 158 266 214 136 171 245 289 244 280 228 197 185 231 250 148 231 201 199 261 260 250 257 223 256 3 333 320 310 293 289 282 275 274 277 278 277 274 260 245
309 308 306 308 305 305 306 304 291 280 293 305 277 177 208 226 194 67 87 173 242 299 308 250 290 68 177 243 294 189 267 250 115 250 250 275 260 238 346 329 320 311 298 295 295 286 271 268 265 267 273 258 243 243
321 311 302 298 304 303 302 296 287 283 305 246 226 223 170 86 338 172 185 204 194 194 224 263 328 257 278 19 250 275 191 258 258 190 156 242 264 51 335 312 295 314 299 285 312 301 313 304 290 285 255 244 243 253
329 326 313 300 306 305 306 299 282 293 270 228 244 8 64 133 227 193 246 233 147 224 207 234 268 299 131 285 322 208 327 302 259 144 260 183 208 233 308 316 311 316 333 350 286 287 343 339 349 336 352 29 316 277
326 321 318 306 299 302 307 292 245 227 337 14 347 248 226 219 198 242 216 192 225 250 164 226 150 233 141 256 260 189 263 264 255 93 239 205 158 325 308 283 305 321 327 341 343 355 356 352 334 348 354 356 4 0
319 314 312 309 293 292 303 287 211 110 159 198 221 218 208 160 219 219 193 183 224 188 178 189 200 223 166 214 234 234 239 237 197 228 216 186 5 334 335 323 309 300 308 317 331 336 337 350 319 340 343 343 338 333
312 310 304 296 284 272 269 268 162 156 247 248 204 238 225 184 238 212 237 62 79 196 179 229 241 235 200 219 242 241 244 257 253 235 191 120 347 330 325 320 316 311 296 303 311 316 320 325 322 322 335 334 321 334
318 313 306 297 285 286 223 205 154 189 194 241 227 238 224 251 269 268 271 257 201 277 234 198 225 254 196 238 228 279 250 247 289 3 339 339 333 334 318 313 304 303 305 301 299 300 304 313 314 314 326 325 320 325
325 307 331 328 323 174 146 116 92 202 250 239 231 255 240 262 249 215 225 240 207 230 221 242 248 235 228 257 232 233 265 309 13 332 322 337 335 323 317 313 309 311 298 292 294 286 286 286 299 306 306 303 306 311
314 348 19 21 71 125 124 110 161 195 246 226 233 231 268 290 283 292 294 286 225 242 226 227 253 225 129 252 241 319 329 327 332 336 343 307 294 302 321 320 330 314 300 298 294 288 282 280 290 289 295 318 331 305
269 59 22 358 9 343 139 205 232 217 235 252 255 262 246 271 278 273 245 236 233 216 266 236 222 229 234 251 331 269 302 339 312 342 282 288 288 296 303 310 312 309 297 287 281 280 283 272 268 269 287 319 307 288
289 291 292 291 285 309 233 200 246 264 240 254 260 281 247 263 261 253 258 231 247 267 266 237 244 244 255 222 279 312 285 279 286 298 306 296 291 295 288 297 299 296 285 277 267 267 270 281 279 285 286 290 282 308
283 269 252 233 206 221 247 205 208 257 266 291 245 239 238 259 258 239 218 204 182 201 211 228 241 278 267 20 204 181 219 257 285 304 317 322 320 308 298 299 294 295 285 266 248 251 259 259 252 238 241 276 299 294
297 128 123 159 177 242 269 238 241 235 287 277 262 254 261 226 224 210 196 179 213 221 235 233 257 161 126 157 165 199 255 276 300 310 318 317 319 317 305 290 310 301 269 252 242 251 240 258 259 268 262 259 278 271
269 192 142 216 218 189 254 218 252 309 268 268 293 252 261 237 202 204 148 202 233 238 226 224 197 160 168 189 194 224 280 295 294 299 292 309 329 331 320 314 311 304 272 247 235 265 286 259 310 312 239 238 243 284
303 194 217 194 222 213 256 199 228 207 234 250 235 243 228 214 163 160 220 223 248 229 192 189 171 181 175 167 212 246 267 284 296 318 323 327 4 6 327 320 321 344 45 34 347 305 346 308 139 7 57 130 85 90
151 235 210 204 206 242 195 202 223 233 230 237 235 251 221 167 164 215 240 229 210 146 178 161 167 163 175 199 232 250 269 297 300 310 355 342 11 23 347 346 1 19 10 22 45 60 75 64 85 72 71 83 113 109
203 210 204 255 213 221 230 209 188 220 231 219 233 242 183 185 208 226 243 263 164 189 176 171 176 180 188 192 203 217 213 288 324 336 33 346 359 68 358 8 17 34 10 16 26 46 76 54 71 84 67 103 101 106
215 199 201 220 186 212 202 225 194 207 234 259 230 199 187 197 225 227 218 135 172 180 181 179 178 177 190 203 205 221 79 327 303 329 53 355 2 358 105 334 349 9 3 1 11 18 42 89 87 91 93 94 117 112
232 223 202 220 269 302 276 250 265 255 234 230 220 198 188 214 213 162 105 103 278 160 181 182 180 183 188 179 174 206 265 281 292 347 29 18 358 18 350 351 0 20 342 27 7 60 75 63 63 77 76 68 97 97
260 264 232 165 209 210 261 274 270 254 246 231 236 209 202 189 35 72 54 76 96 133 164 180 182 189 188 150 161 195 230 207 191 206 181 140 70 55 41 68 59 51 55 82 108 106 93 77 66 73 76 71 71 75
230 204 196 242 241 200 209 208 235 240 277 283 270 228 242 80 16 22 89 109 153 162 165 171 174 181 177 175 206 240 235 247 90 74 65 65 71 73 71 62 58 77 108 91 31 39 52 57 68 81 85 100 105 96
227 193 226 212 218 229 223 208 227 258 276 318 312 276 245 230 229 165 198 188 190 186 191 191 172 184 192 199 201 197 197 220 273 105 87 81 76 70 68 77 85 83 93 116 118 121 160 123 120 107 121 134 132 121
229 189 236 249 261 247 245 249 250 254 267 267 257 272 279 321 288 213 223 201 183 187 184 180 177 194 192 200 205 182 182 166 145 111 111 114 104 91 80 79 82 87 93 94 94 94 97 91 94 91 87 89 88 94
220 220 234 260 259 245 237 238 228 223 229 234 243 233 255 242 259 190 166 183 187 190 192 195 191 181 194 185 183 189 181 153 163 160 159 133 124 125 119 104 96 94 93 91 95 100 100 98 99 100 102 105 110 117
215 220 212 250 252 242 197 206 198 221 210 222 231 239 223 223 256 102 142 216 217 215 186 190 198 171 169 196 171 163 181 166 134 133 147 135 138 146 136 120 110 104 96 93 95 101 102 105 104 106 109 111 110 111